sat.trackr.live / text

‹ back to catalog

YAOGAN-30 06B

NORAD 44450 · 2019-045B

PAYLOAD ACTIVE UNKNOWN

§ Identity

Operator
Country
PRC
Launch date
2019-07-26
Launch site
XICLF
Launch vehicle
Mass (kg)
RCS (m²)

External: N2YO · Heavens-Above · Gunter

§ Orbital elements

Epoch: 2026-09-20T00:20:44.248128Z

Period
95.80 min
Inclination
34.9917°
Eccentricity
0.0008368
Mean motion
15.03082059 rev/d
Perigee alt
551.6 km
Apogee alt
563.2 km
Semi-major
6,935.5 km
B*
1.2867e-4
RAAN
111.4531°
Arg perigee
191.2675°
Mean anomaly
168.7846°
Rev number
39,093

§ Raw data

YAOGAN-30 06B1 44450U 19045B   26263.01440102  .00001742  00000+0  12867-3 0  99972 44450  34.9917 111.4531 0008368 191.2675 168.7846 15.03082059390931

JSON: /api/v1/satellites/44450 · /tle

For live sub-satellite position, see the globe view (requires WebGL).

§ Visibility from observer

Set your observer location to see the next 7 days of passes ≥ 10°. The values pass through the URL so the page stays shareable.

No JS? Fill the form by hand. The geolocation button needs JavaScript.